Tracking 30703 objects as of 14-Jun-2025
HD Live streaming from Space Station
objects crossing your sky now

STARLINK-4075

Track STARLINK-4075 now!
10-day predictions
STARLINK-4075 is classified as:


NORAD ID: 52670
Int'l Code: 2022-053Q
Perigee: 546.1 km
Apogee: 547.7 km
Inclination: 53.2 °
Period: 95.4 minutes
Semi major axis: 6917 km
RCS: Unknown
Launch date: May 18, 2022
Source: United States (US)
Launch site: AIR FORCE EASTERN TEST RANGE (AFETR)
Your satellite tracking list
Your tracking list is empty




NASA's NSSDC Master Catalog

Two Line Element Set (TLE):
1 52670U 22053Q   25164.60198017  .00000062  00000-0  21950-4 0  9991
2 52670  53.2177 282.1693 0001181  89.4999 270.6128 15.08842416170426
Source of the keplerian elements: AFSPC